This is the latest recevied weather packets stored in our database for station/object HB9CJD-1. If no packets are shown the sender has not sent any weather packets the latest 10 day(s).
| Time | Temp. | Humidity | Pressure | Rain* | Wind** | Luminosity | Snow |
|---|---|---|---|---|---|---|---|
| 1777235056 | 17.22° C | 34% | 1022.4 hPa | - | - | - | - |
| 1777235056 | 17.22° C | 34% | 1022.4 hPa | - | - | - | - |
| 1777234452 | 17.78° C | 35% | 1022.3 hPa | - | - | - | - |
| 1777234452 | 17.78° C | 35% | 1022.3 hPa | - | - | - | - |
| 1777233849 | 18.33° C | 36% | 1022.2 hPa | - | - | - | - |
| 1777233849 | 18.33° C | 36% | 1022.2 hPa | - | - | - | - |
| 1777233246 | 18.33° C | 33% | 1022.2 hPa | - | - | - | - |
| 1777233246 | 18.33° C | 33% | 1022.2 hPa | - | - | - | - |
| 1777232643 | 18.89° C | 34% | 1022.2 hPa | - | - | - | - |
| 1777232643 | 18.89° C | 34% | 1022.2 hPa | - | - | - | - |
| 1777232039 | 18.89° C | 32% | 1022 hPa | - | - | - | - |
| 1777232039 | 18.89° C | 32% | 1022 hPa | - | - | - | - |
| 1777231436 | 19.44° C | 33% | 1022 hPa | - | - | - | - |
| 1777231436 | 19.44° C | 33% | 1022 hPa | - | - | - | - |
| 1777230833 | 20° C | 33% | 1021.9 hPa | - | - | - | - |
| 1777230833 | 20° C | 33% | 1021.9 hPa | - | - | - | - |
| 1777230229 | 20° C | 32% | 1021.7 hPa | - | - | - | - |
| 1777230229 | 20° C | 32% | 1021.7 hPa | - | - | - | - |
| 1777229626 | 20.56° C | 31% | 1021.6 hPa | - | - | - | - |
| 1777229626 | 20.56° C | 31% | 1021.6 hPa | - | - | - | - |
| 1777229023 | 21.11° C | 41% | 1021.6 hPa | - | - | - | - |
| 1777229023 | 21.11° C | 41% | 1021.6 hPa | - | - | - | - |
| 1777228420 | 21.11° C | 32% | 1021.5 hPa | - | - | - | - |
| 1777228420 | 21.11° C | 32% | 1021.5 hPa | - | - | - | - |
| 1777227817 | 22.22° C | 30% | 1021.4 hPa | - | - | - | - |
* Rain since midnight (hover to see other rain measurements)
** Current wind speed in m/s (hover to see current wind gust speed)